EW9318 Weather Reports


Display with metric or nautical units.
time (UTC)temp
F
wind
direction
speed
MPH
gust
MPH
rain 1hr
in
rain 24hr
in
rain mn
in
humidity
%
barometer
mb
20260831212516 80 174 2.0 8.0 0.01 0.02 0.02 78 1011.9
20260831212015 80 187 3.0 6.0 0.01 0.02 0.02 78 1011.9
20260831211515 80 165 1.0 5.0 0.01 0.02 0.02 79 1011.9
20260831211017 80 139 2.0 5.0 0.01 0.02 0.02 80 1011.8
20260831210515 80 134 3.0 5.0 0.01 0.02 0.02 80 1012.0
20260831210015 80 141 2.0 5.0 0.01 0.02 0.02 78 1012.1
20260831205515 81 147 1.0 2.0 0.00 0.01 0.01 78 1012.3
20260831205015 82 116 0.0 3.0 0.00 0.01 0.01 73 1012.4
20260831204515 82 80 1.0 6.0 0.00 0.01 0.01 71 1012.4
20260831204015 82 187 2.0 9.0 0.00 0.01 0.01 67 1012.4
20260831203516 83 174 4.0 9.0 0.00 0.01 0.01 65 1012.3
20260831203015 83 182 4.0 9.0 0.00 0.01 0.01 63 1012.2
20260831202517 84 184 4.0 10.0 0.00 0.01 0.01 61 1012.1
20260831202015 84 186 4.0 10.0 0.00 0.01 0.01 60 1012.4
20260831201515 84 190 5.0 8.0 0.00 0.01 0.01 57 1012.2
20260831201015 85 183 5.0 10.0 0.00 0.01 0.01 57 1012.3
20260831200536 85 199 6.0 10.0 0.00 0.01 0.01 57 1012.3
20260831200035 85 202 6.0 10.0 0.00 0.01 0.01 54 1012.3
20260831195515 86 197 4.0 11.0 0.00 0.01 0.01 54 1012.2
20260831195016 86 194 4.0 17.0 0.00 0.01 0.01 55 1012.1
20260831194515 87 171 7.0 17.0 0.00 0.01 0.01 55 1011.9
20260831194015 87 190 4.0 12.0 0.00 0.01 0.01 56 1012.0
20260831193515 87 182 6.0 12.0 0.00 0.01 0.01 56 1012.1
20260831193015 87 200 5.0 12.0 0.00 0.01 0.01 58 1012.0
20260831192515 86 184 5.0 12.0 0.00 0.01 0.01 58 1012.1
20260831192016 86 156 5.0 13.0 0.00 0.01 0.01 60 1012.2
20260831191515 85 180 8.0 14.0 0.00 0.01 0.01 59 1012.2
20260831191016 84 191 6.0 14.0 0.00 0.01 0.01 61 1012.3
20260831190515 84 168 5.0 11.0 0.00 0.01 0.01 62 1012.2
20260831190015 83 174 5.0 14.0 0.00 0.01 0.01 61 1012.1
20260831185555 84 186 6.0 15.0 0.00 0.01 0.01 59 1012.2
20260831185015 84 179 9.0 18.0 0.00 0.01 0.01 59 1012.3
20260831184516 84 173 9.0 18.0 0.00 0.01 0.01 61 1012.3
20260831184036 84 167 8.0 16.0 0.00 0.01 0.01 62 1012.4
20260831183515 83 172 7.0 16.0 0.00 0.02 0.01 64 1012.5
20260831183015 82 162 5.0 10.0 0.00 0.02 0.01 67 1012.6
20260831182515 82 164 6.0 14.0 0.00 0.02 0.01 65 1012.5
20260831182015 82 171 4.0 14.0 0.00 0.02 0.01 67 1012.7
20260831181515 81 163 4.0 18.0 0.00 0.03 0.01 70 1012.7
20260831181015 81 178 5.0 18.0 0.00 0.04 0.01 67 1012.6
20260831180516 81 173 6.0 14.0 0.00 0.04 0.01 67 1012.8
20260831180015 81 184 6.0 13.0 0.00 0.05 0.01 66 1012.9
20260831175515 81 171 7.0 13.0 0.00 0.05 0.01 66 1013.1
20260831175015 81 178 7.0 13.0 0.00 0.06 0.01 65 1013.3
20260831174535 81 185 7.0 12.0 0.00 0.06 0.01 67 1013.4
20260831174016 81 195 5.0 13.0 0.00 0.07 0.01 70 1013.4
20260831173515 80 170 6.0 13.0 0.00 0.08 0.01 71 1013.4
20260831173016 79 180 5.0 12.0 0.00 0.08 0.01 72 1013.5
20260831172517 79 182 6.0 14.0 0.00 0.08 0.01 71 1013.4
20260831172017 79 183 7.0 16.0 0.00 0.09 0.01 72 1013.5
20260831171517 79 193 7.0 16.0 0.00 0.09 0.01 73 1013.4
20260831171017 79 184 8.0 17.0 0.00 0.10 0.01 73 1013.4
20260831170517 79 178 7.0 17.0 0.00 0.10 0.01 75 1013.6
20260831170017 78 178 6.0 12.0 0.00 0.10 0.01 78 1013.7
20260831165518 77 199 6.0 11.0 0.00 0.10 0.01 78 1013.8
20260831165017 77 177 6.0 16.0 0.00 0.11 0.01 80 1013.9
20260831164517 76 174 7.0 16.0 0.00 0.11 0.01 82 1014.0
20260831164037 75 174 5.0 13.0 0.00 0.12 0.01 83 1014.1
20260831163517 74 166 4.0 9.0 0.00 0.12 0.01 87 1014.1
20260831163017 73 153 4.0 9.0 0.00 0.13 0.01 86 1014.1
20260831162518 73 150 4.0 8.0 0.00 0.15 0.01 87 1014.0
20260831162038 73 146 4.0 7.0 0.00 0.15 0.01 87 1014.1
20260831161538 73 140 3.0 5.0 0.00 0.16 0.01 87 1014.2
20260831161017 72 140 3.0 5.0 0.00 0.16 0.01 87 1014.2
20260831160518 72 165 2.0 8.0 0.00 0.17 0.01 87 1014.4
20260831160057 72 149 3.0 8.0 0.00 0.18 0.01 87 1014.3
20260831155517 72 145 3.0 5.0 0.00 0.18 0.01 87 1014.4
20260831155017 72 164 1.0 5.0 0.00 0.19 0.01 87 1014.4
20260831154539 72 144 2.0 8.0 0.00 0.19 0.01 87 1014.4
20260831154017 72 140 4.0 8.0 0.00 0.20 0.01 87 1014.4
20260831153518 72 150 2.0 6.0 0.00 0.20 0.01 87 1014.6
20260831153037 72 194 0.0 4.0 0.00 0.21 0.01 87 1014.8
20260831152518 72 192 1.0 6.0 0.00 0.22 0.01 88 1014.9
20260831152017 72 150 3.0 6.0 0.00 0.22 0.01 88 1014.8
20260831151517 72 137 3.0 5.0 0.00 0.23 0.01 88 1014.6
20260831151017 72 144 2.0 5.0 0.00 0.24 0.01 88 1014.9
20260831150517 72 140 2.0 5.0 0.01 0.24 0.01 87 1014.8
20260831150017 72 160 2.0 5.0 0.01 0.25 0.01 87 1014.9
20260831145517 72 150 3.0 6.0 0.01 0.25 0.01 87 1014.8
20260831145017 72 154 2.0 7.0 0.01 0.26 0.01 88 1014.7
20260831144517 72 163 1.0 7.0 0.01 0.26 0.01 89 1014.7
20260831144017 72 150 1.0 4.0 0.01 0.27 0.01 89 1014.7
20260831143517 71 132 1.0 6.0 0.01 0.27 0.01 89 1014.7
20260831143016 71 163 2.0 6.0 0.01 0.28 0.01 89 1014.8
20260831142538 71 218 0.0 5.0 0.01 0.28 0.01 90 1014.7
20260831142017 71 348 2.0 5.0 0.01 0.29 0.01 90 1014.7
20260831141517 70 28 1.0 4.0 0.01 0.29 0.01 90 1014.4
20260831141016 70 159 0.0 9.0 0.01 0.29 0.01 90 1014.4
20260831140518 70 144 3.0 9.0 0.00 0.29 0.00 90 1014.3
20260831140016 70 124 5.0 9.0 0.00 0.29 0.00 90 1014.1
20260831135537 70 127 4.0 8.0 0.00 0.30 0.00 90 1014.1
20260831135016 71 143 1.0 3.0 0.00 0.30 0.00 90 1014.4
20260831134517 70 139 0.0 1.0 0.00 0.31 0.00 89 1014.5
20260831134017 70 146 0.0 1.0 0.00 0.31 0.00 88 1014.4
20260831133518 70 145 0.0 5.0 0.00 0.31 0.00 88 1014.4
20260831133017 71 134 1.0 5.0 0.00 0.32 0.00 88 1014.2
20260831132517 71 116 1.0 5.0 0.00 0.32 0.00 88 1014.1
20260831132017 71 94 3.0 6.0 0.00 0.33 0.00 87 1014.2
20260831131538 71 122 3.0 6.0 0.00 0.33 0.00 86 1014.2
20260831131038 71 139 2.0 5.0 0.00 0.33 0.00 86 1014.4
20260831130518 71 179 2.0 5.0 0.00 0.34 0.00 86 1014.6
20260831130017 71 193 0.0 4.0 0.00 0.34 0.00 86 1014.7
20260831125518 71 197 1.0 4.0 0.00 0.34 0.00 86 1014.6
20260831125017 71 193 1.0 4.0 0.00 0.35 0.00 87 1014.6
20260831124517 71 164 1.0 4.0 0.00 0.35 0.00 87 1014.5
20260831124016 71 216 1.0 6.0 0.00 0.35 0.00 87 1014.5
20260831123517 71 227 1.0 6.0 0.00 0.36 0.00 88 1014.5
20260831123017 71 193 1.0 5.0 0.00 0.36 0.00 88 1014.6
20260831122518 71 155 0.0 3.0 0.00 0.36 0.00 89 1014.3
20260831122017 71 205 0.0 3.0 0.00 0.36 0.00 89 1014.3
20260831121516 71 218 0.0 6.0 0.00 0.36 0.00 89 1014.2
20260831121016 70 186 3.0 6.0 0.00 0.37 0.00 90 1014.2
20260831120518 70 188 2.0 5.0 0.00 0.37 0.00 91 1014.2
20260831120016 70 177 1.0 8.0 0.00 0.37 0.00 92 1014.2
20260831115516 69 134 3.0 8.0 0.00 0.37 0.00 92 1013.9
20260831115017 69 125 3.0 5.0 0.00 0.37 0.00 92 1013.6
20260831114517 69 131 3.0 5.0 0.00 0.37 0.00 92 1013.6
20260831114038 68 130 2.0 4.0 0.00 0.37 0.00 92 1013.7
20260831113516 68 123 2.0 4.0 0.00 0.37 0.00 92 1013.6
20260831113016 68 125 1.0 3.0 0.00 0.37 0.00 92 1013.6
20260831112517 68 138 0.0 3.0 0.00 0.37 0.00 92 1013.7
20260831112017 68 139 1.0 4.0 0.00 0.37 0.00 92 1013.6
20260831111517 68 145 2.0 4.0 0.00 0.37 0.00 92 1013.5
20260831111016 68 140 1.0 3.0 0.00 0.37 0.00 92 1013.6
20260831110516 68 138 1.0 4.0 0.00 0.37 0.00 92 1013.6
20260831110016 68 143 1.0 4.0 0.00 0.38 0.00 92 1013.7
20260831105516 68 150 0.0 2.0 0.00 0.38 0.00 92 1013.8
20260831105016 68 156 0.0 1.0 0.00 0.38 0.00 92 1013.8
20260831104517 68 151 0.0 2.0 0.00 0.38 0.00 92 1013.9
20260831104016 68 172 0.0 3.0 0.00 0.38 0.00 92 1013.8
20260831103517 68 155 0.0 3.0 0.00 0.38 0.00 92 1013.8
20260831103038 68 160 1.0 4.0 0.00 0.38 0.00 92 1013.8
20260831102516 68 184 1.0 5.0 0.00 0.38 0.00 93 1013.8
20260831102016 68 164 1.0 5.0 0.00 0.38 0.00 93 1013.7
20260831101536 68 152 1.0 5.0 0.00 0.38 0.00 93 1013.7
20260831101016 68 156 1.0 5.0 0.00 0.38 0.00 93 1013.7
20260831100516 67 139 0.0 3.0 0.00 0.38 0.00 93 1013.8
20260831100016 67 128 0.0 3.0 0.00 0.38 0.00 92 1013.8
20260831095516 67 130 1.0 3.0 0.00 0.38 0.00 92 1013.8
20260831095037 67 133 0.0 2.0 0.00 0.38 0.00 92 1013.9
20260831094516 67 144 0.0 1.0 0.00 0.38 0.00 92 1013.9
20260831094017 67 155 0.0 2.0 0.00 0.38 0.00 92 1014.0
20260831093516 67 152 0.0 2.0 0.00 0.38 0.00 92 1013.9
20260831093036 67 147 0.0 2.0 0.00 0.39 0.00 92 1014.0
20260831092516 67 151 0.0 2.0 0.00 0.39 0.00 92 1013.9
20260831092016 67 160 0.0 4.0 0.00 0.39 0.00 92 1014.1
20260831091516 67 164 0.0 4.0 0.00 0.39 0.00 92 1014.1
20260831091016 67 152 0.0 2.0 0.00 0.39 0.00 92 1014.1
20260831090516 67 135 0.0 2.0 0.00 0.39 0.00 92 1014.0
20260831090016 67 127 1.0 3.0 0.00 0.39 0.00 92 1014.0
20260831085556 67 141 1.0 3.0 0.00 0.39 0.00 92 1014.0
20260831085016 67 0.0 0.0 0.00 0.39 0.00 91 1014.0
20260831084537 67 0.0 0.0 0.00 0.39 0.00 91 1014.0
20260831084016 67 0.0 0.0 0.00 0.39 0.00 91 1014.0
20260831083516 67 0.0 0.0 0.00 0.39 0.00 91 1013.9
20260831083016 67 0.0 0.0 0.00 0.39 0.00 91 1013.9
20260831082536 68 0.0 0.0 0.00 0.39 0.00 90 1014.0
20260831082016 68 0.0 0.0 0.00 0.39 0.00 90 1013.9
20260831081536 68 0.0 0.0 0.00 0.39 0.00 90 1014.1
20260831081036 68 0.0 0.0 0.00 0.39 0.00 90 1014.1
20260831080516 68 0.0 0.0 0.00 0.39 0.00 90 1014.0
20260831080037 68 0.0 0.0 0.00 0.39 0.00 89 1014.1
20260831075516 69 0.0 0.0 0.00 0.39 0.00 89 1014.1
20260831075016 69 0.0 0.0 0.00 0.39 0.00 90 1014.2
20260831074516 69 0.0 0.0 0.00 0.39 0.00 90 1014.1
20260831074017 69 0.0 0.0 0.00 0.39 0.00 90 1014.3
20260831073536 69 0.0 2.0 0.00 0.39 0.00 90 1014.2
20260831073016 69 138 0.0 3.0 0.00 0.39 0.00 89 1014.2
20260831072517 69 148 1.0 3.0 0.00 0.39 0.00 89 1014.2
20260831072016 69 138 0.0 3.0 0.00 0.39 0.00 89 1014.2
20260831071517 69 139 0.0 2.0 0.00 0.39 0.00 89 1014.2
20260831071016 69 155 0.0 1.0 0.00 0.39 0.00 89 1014.2
20260831070536 69 0.0 3.0 0.00 0.39 0.00 89 1014.3
20260831070057 69 168 0.0 3.0 0.00 0.39 0.00 89 1014.3
20260831065515 69 194 0.0 3.0 0.00 0.39 0.00 89 1014.2
20260831065016 69 0.0 0.0 0.00 0.39 0.00 89 1014.2
20260831064516 69 0.0 1.0 0.00 0.39 0.00 89 1014.2
20260831064016 69 160 0.0 1.0 0.00 0.39 0.00 89 1014.1
20260831063516 69 155 0.0 3.0 0.00 0.39 0.00 89 1014.1
20260831063016 69 155 0.0 3.0 0.00 0.39 0.00 89 1014.1
20260831062516 69 136 0.0 2.0 0.00 0.39 0.00 89 1013.9
20260831062016 69 131 0.0 4.0 0.00 0.39 0.00 89 1013.8
20260831061517 69 144 1.0 4.0 0.00 0.39 0.00 89 1013.8
20260831061015 69 149 1.0 3.0 0.00 0.39 0.00 89 1013.7
20260831060517 69 150 0.0 4.0 0.00 0.39 0.00 89 1013.8
20260831060016 69 145 1.0 4.0 0.00 0.39 0.00 89 1013.8
20260831055516 69 150 1.0 4.0 0.00 0.39 0.00 89 1013.7
20260831055016 69 151 2.0 4.0 0.00 0.39 0.00 89 1014.0
20260831054516 69 160 1.0 6.0 0.00 0.39 0.00 89 1014.1
20260831054055 69 165 2.0 6.0 0.00 0.39 0.00 89 1014.1
20260831053516 69 147 2.0 6.0 0.00 0.39 0.00 89 1014.0
20260831053016 69 154 1.0 5.0 0.00 0.39 0.00 88 1014.0
20260831052516 69 137 1.0 4.0 0.00 0.39 0.00 88 1014.0
20260831052017 69 156 1.0 5.0 0.00 0.39 0.00 88 1014.2
20260831051516 69 150 1.0 5.0 0.00 0.39 0.00 88 1014.2
20260831051016 69 146 2.0 7.0 0.00 0.39 0.00 88 1014.1
20260831050515 69 147 3.0 7.0 0.00 0.39 0.00 88 1014.1
20260831050017 69 156 1.0 5.0 0.00 0.39 0.00 87 1014.2
20260831045536 69 154 1.0 6.0 0.00 0.39 0.00 87 1014.2
20260831045036 69 159 2.0 6.0 0.00 0.39 0.00 87 1014.2
20260831044515 69 153 2.0 6.0 0.00 0.39 0.00 87 1014.2
20260831044015 69 159 1.0 5.0 0.00 0.39 0.00 86 1014.2
20260831043515 70 146 3.0 7.0 0.00 0.39 0.00 86 1014.2
20260831043017 70 136 3.0 7.0 0.00 0.39 0.00 86 1014.1
20260831042515 70 148 1.0 5.0 0.00 0.39 0.00 85 1014.1
20260831042016 70 128 1.0 4.0 0.00 0.39 0.00 85 1014.2
20260831041515 70 130 2.0 5.0 0.00 0.39 0.00 85 1014.2
20260831041015 70 159 1.0 5.0 0.00 0.39 0.00 85 1014.2
20260831040534 70 157 1.0 1.0 0.00 0.39 0.00 85 1014.2
20260831040017 70 134 2.0 5.0 0.00 0.39 0.39 85 1014.0
20260831035516 70 139 0.0 6.0 0.00 0.39 0.39 85 1014.1
20260831035016 70 140 2.0 6.0 0.00 0.39 0.39 84 1014.1
20260831034536 70 132 2.0 6.0 0.00 0.39 0.39 84 1014.0
20260831034016 70 152 3.0 6.0 0.00 0.39 0.39 84 1014.1
20260831033516 70 157 2.0 6.0 0.00 0.39 0.39 84 1014.1
20260831033017 70 139 2.0 6.0 0.00 0.39 0.39 84 1014.0
20260831032617 70 124 3.0 6.0 0.00 0.39 0.39 84 1014.0
20260831032016 71 128 3.0 7.0 0.00 0.39 0.39 84 1014.0
20260831031516 71 152 3.0 9.0 0.00 0.39 0.39 84 1014.1
20260831031016 71 157 4.0 9.0 0.00 0.39 0.39 84 1014.2
20260831030516 71 155 2.0 9.0 0.00 0.39 0.39 84 1014.3
20260831030036 71 155 2.0 9.0 0.00 0.39 0.39 84 1014.2
20260831025556 71 179 2.0 6.0 0.00 0.39 0.39 84 1014.0
20260831025016 71 204 1.0 6.0 0.00 0.39 0.39 84 1014.2
20260831024516 71 224 0.0 4.0 0.00 0.39 0.39 85 1014.3
20260831024016 71 308 2.0 4.0 0.00 0.39 0.39 85 1014.1
20260831023516 71 53 2.0 9.0 0.00 0.39 0.39 85 1013.9
20260831023017 71 112 4.0 9.0 0.00 0.39 0.39 84 1013.5
20260831022517 71 121 2.0 5.0 0.00 0.39 0.39 84 1013.7
20260831022036 71 83 1.0 4.0 0.00 0.39 0.39 84 1013.8
20260831021516 71 117 2.0 6.0 0.00 0.39 0.39 84 1013.8
20260831021017 71 134 1.0 6.0 0.00 0.39 0.39 84 1013.8
20260831020517 71 159 3.0 7.0 0.00 0.39 0.39 84 1013.8
20260831020016 71 173 4.0 7.0 0.00 0.39 0.39 84 1013.9
20260831015516 71 170 3.0 7.0 0.00 0.39 0.39 83 1013.8
20260831015016 71 191 2.0 7.0 0.00 0.39 0.39 83 1014.0
20260831014516 72 217 3.0 6.0 0.00 0.39 0.39 83 1014.2
20260831014016 72 255 2.0 6.0 0.00 0.39 0.39 82 1014.2
20260831013516 72 257 1.0 5.0 0.00 0.39 0.39 83 1014.1
20260831013015 72 220 2.0 6.0 0.00 0.39 0.39 83 1014.0
20260831012516 72 202 2.0 6.0 0.00 0.39 0.39 82 1013.9
20260831012016 72 217 2.0 9.0 0.00 0.39 0.39 82 1013.8
20260831011517 72 202 3.0 9.0 0.00 0.39 0.39 82 1013.7
20260831011015 72 210 2.0 5.0 0.00 0.39 0.39 82 1013.7
20260831010537 72 227 2.0 5.0 0.00 0.39 0.39 82 1013.5
20260831010036 72 235 1.0 5.0 0.00 0.39 0.39 81 1013.5
20260831005516 72 232 2.0 5.0 0.00 0.39 0.39 81 1013.4
20260831005037 72 247 1.0 5.0 0.00 0.39 0.39 81 1013.3
20260831004516 72 199 2.0 5.0 0.00 0.39 0.39 81 1013.3
20260831004016 72 198 2.0 5.0 0.00 0.39 0.39 81 1013.2
20260831003516 73 192 2.0 4.0 0.00 0.39 0.39 81 1013.2
20260831003016 73 212 2.0 7.0 0.00 0.39 0.39 80 1013.3
20260831002517 73 230 3.0 7.0 0.00 0.39 0.39 79 1013.4
20260831002015 73 240 0.0 5.0 0.00 0.39 0.39 79 1013.3
20260831001516 73 242 1.0 5.0 0.00 0.39 0.39 79 1013.3
20260831001017 73 223 1.0 6.0 0.00 0.39 0.39 79 1013.3
20260831000516 73 243 1.0 7.0 0.00 0.39 0.39 79 1013.2
20260831000037 74 225 3.0 10.0 0.00 0.39 0.39 79 1013.3
20260830235515 74 238 6.0 14.0 0.00 0.39 0.39 78 1013.4
20260830235015 74 224 6.0 14.0 0.00 0.39 0.39 78 1013.4
20260830234516 74 235 5.0 13.0 0.00 0.39 0.39 78 1013.5
20260830234017 74 236 5.0 13.0 0.00 0.39 0.39 78 1013.5
20260830233535 74 233 5.0 11.0 0.00 0.39 0.39 77 1013.5
20260830233015 74 227 6.0 11.0 0.00 0.39 0.39 77 1013.4
20260830232516 74 227 5.0 11.0 0.00 0.39 0.39 77 1013.4
20260830232015 74 218 6.0 11.0 0.00 0.39 0.39 77 1013.4
20260830231515 75 208 3.0 10.0 0.00 0.39 0.39 77 1013.4
20260830231017 75 225 5.0 10.0 0.00 0.39 0.39 76 1013.5
20260830230557 75 203 4.0 9.0 0.00 0.39 0.39 76 1013.5
20260830230015 75 195 4.0 10.0 0.00 0.39 0.39 76 1013.6
20260830225535 75 222 4.0 10.0 0.00 0.39 0.39 75 1013.6
20260830225016 75 220 3.0 10.0 0.00 0.39 0.39 75 1013.6
20260830224515 75 231 6.0 12.0 0.00 0.39 0.39 74 1013.7
20260830224015 76 218 6.0 12.0 0.00 0.39 0.39 74 1013.7
20260830223515 76 220 6.0 11.0 0.00 0.39 0.39 73 1013.7
20260830223015 76 229 6.0 11.0 0.00 0.39 0.39 73 1013.6
20260830222516 76 236 5.0 14.0 0.00 0.39 0.39 72 1013.9
20260830222015 76 226 8.0 14.0 0.00 0.39 0.39 72 1013.7
20260830221515 77 235 7.0 14.0 0.00 0.39 0.39 71 1013.9
20260830221035 77 244 8.0 15.0 0.00 0.39 0.39 70 1013.9
20260830220516 77 225 8.0 15.0 0.00 0.39 0.39 70 1013.9
20260830220015 77 233 8.0 13.0 0.00 0.39 0.39 70 1013.9
20260830215515 77 225 7.0 13.0 0.00 0.39 0.39 69 1014.0
20260830215035 78 238 9.0 16.0 0.00 0.39 0.39 68 1014.2
20260830214515 78 229 10.0 16.0 0.00 0.39 0.39 67 1014.2
20260830214035 78 236 7.0 16.0 0.00 0.39 0.39 67 1014.2
20260830213515 78 231 9.0 16.0 0.00 0.39 0.39 67 1014.2
20260830213015 78 209 6.0 15.0 0.00 0.39 0.39 66 1014.1